Namest Nad Oslav, Czech Republic

4:52 PM CET on February 13, 2016 (GMT +0100)
Namest

Weather History for LKNA - September, 2013

Change the Weather History Date:

Friday, September 20, 2013

  Actual Average Record
Temperature  
Mean Temperature 48 °F -  
Max Temperature 53 °F - - ()
Min Temperature 42 °F - - ()
Degree Days  
Heating Degree Days 18    
Moisture  
Dew Point 47 °F    
Average Humidity 93    
Maximum Humidity 100    
Minimum Humidity 87    
Precipitation  
Precipitation 0.00 in - - ()
Sea Level Pressure  
Sea Level Pressure 29.98 in    
Wind  
Wind Speed 5 mph ()    
Max Wind Speed 10 mph    
Max Gust Speed -    
Visibility 6.1 miles    
Events Rain    
T = Trace of Precipitation, MM = Missing Value Source: Averaged Metar Reports

Daily Weather History Graph

Daily Weather History Graph

Search for Another Location

Airport or City:

Trip Planner

Search our weather history database for the weather conditions in past years. The results will help you decide how hot, cold, wet, or windy it might be!

Date:

Astronomy

Sep. 20, 2013 Rise Set
Actual Time 6:39 AM CEST 6:57 PM CEST
Civil Twilight 6:07 AM CEST 7:29 PM CEST
Nautical Twilight 5:29 AM CEST 8:06 PM CEST
Astronomical Twilight 4:50 AM CEST 8:45 PM CEST
Moon 7:09 PM CEST (9/20) 7:43 AM CEST (9/20)
Length of Visible Light 13h 22m
Length of Day
12h 18m
Full, 99% of the Moon is Illuminated
Sep 20
Full
Sep 27
Last Quarter
Oct 5
New
Oct 12
First Quarter
Oct 19
Full

Hourly Weather History & Observations

Time (CEST) Temp. Windchill Dew Point Humidity Pressure Visibility Wind Dir Wind Speed Gust Speed Precip Events Conditions
12:00 AM 42.8 °F 39.3 °F 41.0 °F 93% 29.95 in - WNW 5.8 mph - N/A   Clear
1:00 AM 44.6 °F 39.7 °F 42.8 °F 93% 29.95 in - WNW 9.2 mph - N/A   Clear
2:00 AM 44.6 °F 39.7 °F 41.0 °F 87% 29.95 in - WNW 9.2 mph - N/A   Clear
3:00 AM 44.6 °F 42.2 °F 42.8 °F 93% 29.95 in - West 4.6 mph - N/A   Clear
4:00 AM 42.8 °F 40.1 °F 42.8 °F 100% 29.95 in - WNW 4.6 mph - N/A   Clear
5:00 AM 44.6 °F 42.2 °F 42.8 °F 93% 29.95 in - West 4.6 mph - N/A   Clear
6:00 AM 44.6 °F - 42.8 °F 93% 29.95 in - SSW 2.3 mph - N/A   Clear
7:00 AM 46.4 °F 44.3 °F 44.6 °F 93% 29.95 in - WSW 4.6 mph - N/A   Clear
8:00 AM 46.4 °F - 44.6 °F 93% 29.98 in - West 1.2 mph - N/A   Clear
9:00 AM 50.0 °F - 46.4 °F 87% 29.98 in - SSW 3.5 mph - N/A   Clear
10:00 AM 50.0 °F - 46.4 °F 87% 29.98 in 6.2 mi Variable 2.3 mph - N/A   Overcast
11:00 AM 51.8 °F - 48.2 °F 88% 29.98 in 6.2 mi SSW 4.6 mph - N/A   Overcast
12:00 PM 51.8 °F - 48.2 °F 88% 29.98 in 6.2 mi SSW 4.6 mph - N/A   Overcast
1:00 PM 53.6 °F - 50.0 °F 88% 29.98 in 6.2 mi South 5.8 mph - N/A Rain Light Rain Showers
2:00 PM 51.8 °F - 50.0 °F 94% 29.98 in 5.6 mi SSE 3.5 mph - N/A Rain Light Rain Showers
3:00 PM 51.8 °F - 50.0 °F 94% 29.98 in 5.6 mi South 6.9 mph - N/A Rain Light Rain
4:00 PM 51.8 °F - 51.8 °F 100% 29.98 in 5.6 mi SW 2.3 mph - N/A Rain Light Rain
5:00 PM 53.6 °F - 51.8 °F 94% 29.98 in 6.2 mi West 5.8 mph - N/A   Overcast
6:00 PM 53.6 °F - 51.8 °F 94% 29.98 in 6.2 mi West 5.8 mph - N/A   Mostly Cloudy
7:00 PM 51.8 °F - 50.0 °F 94% 30.01 in 6.2 mi WNW 5.8 mph - N/A   Mostly Cloudy
8:00 PM 51.8 °F - 51.8 °F 100% 30.01 in 6.2 mi West 9.2 mph - N/A Rain Light Rain Showers
9:00 PM 51.8 °F - 50.0 °F 94% 30.04 in - West 10.4 mph - N/A   Clear
10:00 PM 51.8 °F - 50.0 °F 94% 30.04 in - West 10.4 mph - N/A   Clear
11:00 PM 48.2 °F - 48.2 °F 100% 30.04 in 6.2 mi West 5.8 mph - N/A   Mostly Cloudy